Content
SEND FEEDBACK

Daily
Averages
Monthly
Summary
Czech Republic

BRNO, CZECH REPUBLIC


Home > Europe > Czech Republic
Elevation: 807 feet     Latitude: 49 09N     Longitude: 016 42E

WEATHER
 
SELECT A DAY
Number of Records: 298,646;   Date Range: 2/20/97 - 12/19/14
 
SHARE

PRINT THIS DATA

[ ← Previous Day ]
WEATHER ALMANAC - JUNE 14, 2013
[ Next Day → ]
[ °C ]   °F
Weather ElementAverageHighLow
Temperature64.3 °F73.4 °F (12:00 pm)53.6 °F (4:30 am)
Dewpoint53.9 °F57.2 °F (11:30 am)48.2 °F (4:30 am)
Humidity69.2 %82 % (12:30 am)53 % (10:00 am)
Barometer30.05 in30.12 in (1:00 pm)29.98 in (2:30 am)
Wind Speed8.2 mph16.1 mph (12:30 pm)
Weather ElementAverage
Visibility8.7 mi
Wind DirectionS (180.6 °)

Weather ElementTotal
Precipitation---
Heating Degree Days1.5 (Base 65)
Growing Degree Days13.5 (Base 50)
Averaged from 52 records on June 14, 2013
WEATHER CONDITIONS BREAKOUT
WIND DIRECTION BREAKOUT
WEATHER BY HOUR - JUNE 14, 2013
[ °C ]   °F
Local TimeTemperatureDewpointHumidityBarometerVisibilityWind DirectionWind SpeedGust SpeedPrecipitationEventsConditions
12:30 AM57.2 °F51.8 °F82 %30.01 inENE (60°)5.8 mphClear
1:00 AM57.2 °F51.8 °F82 %30.01 inENE (60°)6.9 mphClear
1:30 AM57.2 °F51.8 °F82 %30.01 inNE (40°)6.9 mphClear
2:00 AM58.0 °F50.0 °F68 %30.00 in19.0 miNE (40°)6.7 mph
2:00 AM59.0 °F51.8 °F77 %30.01 inNNE (30°)8.1 mphClear
2:30 AM55.4 °F50.0 °F82 %29.98 inENE (60°)5.8 mphClear
3:00 AM57.2 °F50.0 °F77 %29.98 inNE (50°)6.9 mphClear
3:30 AM55.4 °F50.0 °F82 %29.98 inNE (50°)5.8 mphClear
4:00 AM55.4 °F50.0 °F82 %29.98 inNW (320°)3.5 mphClear
4:30 AM53.6 °F48.2 °F82 %29.98 inENE (60°)5.8 mphClear
5:00 AM53.6 °F48.2 °F82 %29.98 inNNW (340°)3.5 mphClear
5:30 AM55.4 °F50.0 °F82 %29.98 inVariable1.2 mphClear
6:00 AM55.4 °F50.0 °F82 %30.01 inCalmClear
6:30 AM57.2 °F51.8 °F82 %30.01 inCalmClear
7:00 AM59.0 °F51.8 °F77 %30.01 inVariable2.3 mphClear
7:30 AM60.8 °F53.6 °F77 %30.04 inWNW (290°)6.9 mphClear
8:00 AM65.0 °F54.0 °F60 %30.03 in19.0 miWNW (290°)6.7 mphScattered Clouds
8:00 AM64.4 °F53.6 °F68 %30.04 inNW (320°)3.5 mphClear
8:30 AM66.2 °F55.4 °F68 %30.04 inWest (280°)6.9 mphClear
9:00 AM69.8 °F53.6 °F56 %30.04 inNNW (340°)5.8 mphClear
9:30 AM71.6 °F55.4 °F57 %30.04 inNNE (20°)4.6 mphClear
10:00 AM71.6 °F53.6 °F53 %30.04 in6.2 miNW (320°)11.5 mphPartly Cloudy
10:30 AM71.6 °F55.4 °F57 %30.06 in6.2 miNorth (350°)10.4 mphMostly Cloudy
11:00 AM71.6 °F55.4 °F57 %30.06 in6.2 miNW (320°)10.4 mphMostly Cloudy
11:30 AM71.6 °F57.2 °F60 %30.09 in6.2 miNW (320°)12.7 mphMostly Cloudy
12:00 PM73.4 °F55.4 °F53 %30.09 in6.2 miWNW (300°)12.7 mphMostly Cloudy
12:30 PM68.0 °F55.4 °F64 %30.09 in6.2 miWNW (300°)16.1 mphMostly Cloudy
1:00 PM68.0 °F55.4 °F64 %30.12 in6.2 miNW (310°)16.1 mphMostly Cloudy
1:30 PM66.2 °F55.4 °F68 %30.12 in6.2 miNW (310°)16.1 mphMostly Cloudy
2:00 PM68.0 °F55.0 °F53 %30.09 in22.0 miNW (320°)13.4 mphMostly Cloudy
2:00 PM68.0 °F55.4 °F64 %30.09 inNW (310°)16.1 mphClear
2:30 PM68.0 °F55.4 °F64 %30.09 inNW (310°)12.7 mphClear
3:00 PM68.0 °F55.4 °F64 %30.09 inNW (310°)15.0 mphClear
3:30 PM69.8 °F53.6 °F56 %30.09 inWNW (300°)13.8 mphClear
4:00 PM68.0 °F55.4 °F64 %30.09 inNW (310°)10.4 mphClear
4:30 PM71.6 °F53.6 °F53 %30.09 inNW (310°)5.8 mphClear
5:00 PM71.6 °F55.4 °F57 %30.06 inWNW (290°)6.9 mphClear
5:30 PM71.6 °F53.6 °F53 %30.06 inNorth (350°)5.8 mphClear
6:00 PM69.8 °F55.4 °F60 %30.06 in6.2 miNW (320°)4.6 mphScattered Clouds
6:30 PM69.8 °F53.6 °F56 %30.06 in6.2 miNNW (340°)8.1 mphScattered Clouds
7:00 PM68.0 °F57.2 °F68 %30.06 in6.2 miEast (80°)8.1 mphScattered Clouds
7:30 PM66.2 °F57.2 °F73 %30.06 in6.2 miENE (60°)11.5 mphScattered Clouds
8:00 PM66.0 °F56.0 °F63 %30.06 in28.0 miENE (60°)8.9 mphPartly Cloudy
8:00 PM66.2 °F57.2 °F73 %30.06 in6.2 miENE (60°)9.2 mphScattered Clouds
8:30 PM64.4 °F57.2 °F77 %30.06 in6.2 miENE (60°)8.1 mphScattered Clouds
9:00 PM64.4 °F57.2 °F77 %30.06 in6.2 miENE (60°)5.8 mphMostly Cloudy
9:30 PM64.4 °F57.2 °F77 %30.06 in6.2 miENE (60°)6.9 mphMostly Cloudy
10:00 PM64.4 °F57.2 °F77 %30.09 in6.2 miNE (50°)5.8 mphScattered Clouds
10:30 PM62.6 °F55.4 °F77 %30.06 in6.2 miENE (70°)11.5 mphScattered Clouds
11:00 PM62.6 °F55.4 °F77 %30.06 in6.2 miENE (60°)8.1 mphScattered Clouds
11:30 PM60.8 °F53.6 °F77 %30.06 in6.2 miENE (60°)9.2 mphScattered Clouds
11:38 PM60.8 °F53.6 °F77 %30.06 in6.2 miENE (60°)10.4 mphRainLight Rain
Hourly data recorded from LKTB, located miles away from Brno, Czech Republic







STORIES FROM OUR PARTNERS